EA5AER-5 Weather Reports


time (UTC)temp
C
wind
direction
speed
KPH
gust
KPH
rain 1hr
cm
rain 24hr
cm
rain mn
cm
humidity
%
barometer
mb
20260506215336 16 253 4.8 8.0 0.00 0.00 0.00 77 1010.4
20260506213323 16 253 4.8 8.0 0.00 0.00 0.00 77 1010.4
20260506211235 17 141 1.6 3.2 0.00 0.00 0.00 75 1009.9
20260506205026 17 141 1.6 3.2 0.00 0.00 0.00 75 1009.9
20260506202853 17 140 8.0 9.7 0.00 0.00 0.00 73 1009.8
20260506201029 17 140 4.8 8.0 0.00 0.00 0.00 72 1009.8
20260506195222 17 131 6.4 9.7 0.00 0.00 0.00 71 1009.3
20260506193122 18 117 8.0 12.9 0.00 0.00 0.00 65 1009.1
20260506191213 18 117 8.0 12.9 0.00 0.00 0.00 65 1009.1
20260506185214 18 117 8.0 12.9 0.00 0.00 0.00 65 1009.1
20260506183152 18 117 8.0 12.9 0.00 0.00 0.00 65 1009.1
20260506181112 18 113 8.0 11.3 0.00 0.00 0.00 66 1008.9
20260506175034 18 125 4.8 12.9 0.00 0.08 0.00 66 1008.8
20260506172940 18 84 9.7 19.3 0.00 0.08 0.00 66 1008.9
20260506170859 18 85 9.7 19.3 0.00 0.08 0.00 66 1008.9
20260506164647 18 91 8.0 19.3 0.00 0.08 0.00 66 1009.8
20260506162532 18 91 8.0 19.3 0.00 0.08 0.00 66 1009.8
20260506160524 18 91 8.0 19.3 0.00 0.08 0.00 66 1009.8
20260506154430 18 91 8.0 19.3 0.00 0.08 0.00 66 1009.8
20260506152431 18 91 8.0 19.3 0.00 0.08 0.00 66 1009.8
20260506150302 18 91 8.0 19.3 0.00 0.08 0.00 66 1009.8
20260506144122 18 91 8.0 19.3 0.00 0.08 0.00 66 1009.8
20260506142140 18 91 8.0 19.3 0.00 0.08 0.00 66 1009.8
20260506140049 17 71 12.9 20.9 0.00 0.10 0.00 68 1010.0
20260506134149 17 71 12.9 20.9 0.00 0.10 0.00 68 1010.0
20260506132106 18 83 9.7 19.3 0.00 0.10 0.00 65 1010.2
20260506130213 18 83 9.7 19.3 0.00 0.10 0.00 65 1010.2
20260506124143 18 77 11.3 20.9 0.00 0.28 0.00 68 1010.4
20260506122224 18 77 11.3 20.9 0.00 0.28 0.00 68 1010.4
20260506120122 18 68 9.7 19.3 0.00 0.28 0.00 66 1010.7
20260506114129 18 68 9.7 19.3 0.00 0.28 0.00 66 1010.7
20260506112228 18 68 9.7 19.3 0.00 0.28 0.00 66 1010.7
20260506110215 18 49 9.7 19.3 0.00 0.28 0.00 67 1010.7
20260506104139 18 46 11.3 19.3 0.00 0.28 0.00 70 1010.7
20260506102305 18 46 11.3 19.3 0.00 0.28 0.00 70 1010.7
20260506100301 18 62 9.7 19.3 0.00 0.28 0.00 69 1010.6
20260506094247 18 62 9.7 19.3 0.00 0.28 0.00 69 1010.6
20260506092144 17 10 17.7 22.5 0.00 0.28 0.00 71 1009.4
20260506090229 17 10 17.7 22.5 0.00 0.28 0.00 71 1009.4
20260506084222 17 10 17.7 22.5 0.00 0.28 0.00 71 1009.4
20260506082130 17 10 17.7 22.5 0.00 0.28 0.00 71 1009.4
20260506080246 17 10 17.7 22.5 0.00 0.28 0.00 71 1009.4
20260506072034 17 10 17.7 22.5 0.00 0.28 0.00 71 1009.4
20260506062059 17 10 17.7 22.5 0.00 0.28 0.00 71 1009.4
20260506044118 17 12 12.9 20.9 0.00 0.28 0.00 70 1009.0
20260506042239 17 11 14.5 20.9 0.00 0.28 0.00 71 1009.0
20260506040336 17 14 14.5 20.9 0.00 0.28 0.00 73 1008.9
20260506034254 18 38 3.2 9.7 0.00 0.28 0.00 74 1009.0
20260506032149 18 45 8.0 16.1 0.00 0.28 0.00 75 1008.9
20260506030233 18 59 4.8 16.1 0.00 0.28 0.00 77 1008.9
20260506024109 18 50 9.7 19.3 0.00 0.28 0.00 77 1009.0
20260506021945 18 50 9.7 19.3 0.00 0.28 0.00 77 1009.0
20260506015837 18 47 12.9 20.9 0.00 0.28 0.00 80 1009.0
20260506013622 18 47 12.9 20.9 0.00 0.28 0.00 80 1009.0
20260506011640 18 26 19.3 25.7 0.00 0.28 0.00 83 1009.0
20260506005631 18 26 19.3 25.7 0.00 0.28 0.00 83 1009.0
20260506003622 18 291 11.3 20.9 0.00 0.28 0.00 83 1008.9
20260506001624 18 269 14.5 25.7 0.00 0.28 0.00 81 1009.0
20260505235646 18 269 14.5 25.7 0.00 0.28 0.00 81 1009.0
20260505233433 18 240 14.5 19.3 0.00 0.28 0.00 76 1008.9
20260505231429 18 240 14.5 19.3 0.00 0.28 0.00 76 1008.9
20260505225459 21 315 9.7 16.1 0.00 0.28 0.00 46 1008.5
20260505223311 21 315 9.7 16.1 0.00 0.28 0.00 46 1008.5
20260505221248 21 298 3.2 4.8 0.00 0.28 0.28 47 1008.3